This demonstration page uses our WeatherBlox Daily Observations layout. Learn more.

Left ArrowRight Arrow

41.12389, -100.76542

Hourly Observations for July 21, 2016

Temp ( °F °C ) Dew Point ( °F °C ) Humidity (%) Winds ( mph kmh ) Pressure ( in mb ) Visibility ( mi km ) Precip ( " mm )
12:53 am 00:53 Clear 79 26.1 65 18.3 62 62 S 6 9 29.86 1011 10 16 0.00 0.00
1:53 am 01:53 Clear 79 26.1 63 17.2 58 58 SSW 9 15 29.86 1011 10 16 0.00 0.00
2:53 am 02:53 Clear 78 25.6 63 17.2 60 60 W 7 11 29.86 1011 10 16 0.00 0.00
3:53 am 03:53 Clear 74 23.3 64 17.8 71 71 W 3 6 29.86 1011 10 16 0.00 0.00
4:53 am 04:53 Clear 72 22.2 66 18.9 82 82 Calm 29.85 1011 10 16 0.00 0.00
5:53 am 05:53 Clear 69 20.6 65 18.3 87 87 Calm 29.87 1012 10 16 0.00 0.00
6:53 am 06:53 Mostly Sunny 73 22.8 64 17.8 74 74 WSW 9 15 29.89 1012 10 16 0.00 0.00
7:53 am 07:53 Sunny 73 22.8 65 18.3 76 76 Calm 29.91 1013 10 16 0.00 0.00
8:53 am 08:53 Mostly Sunny 75 23.9 66 18.9 74 74 Calm 29.93 1014 10 16 0.00 0.00
9:53 am 09:53 Sunny 75 23.9 68 20 79 79 Calm 29.94 1014 10 16 0.00 0.00
10:53 am 10:53 Sunny 77 25 68 20 74 74 S 5 7 29.94 1014 10 16 0.00 0.00
11:53 am 11:53 Sunny 81 27.2 68 20 65 65 W 3 6 29.93 1014 10 16 0.00 0.00
12:53 pm 12:53 Sunny 86 30 69 20.6 57 57 W 7 11 29.91 1013 10 16 0.00 0.00
1:53 pm 13:53 Sunny 92 33.3 68 20 46 46 VRB 3 6 29.90 1012 10 16 0.00 0.00
2:53 pm 14:53 Sunny 94 34.4 69 20.6 44 44 SW 3 6 29.89 1012 10 16 0.00 0.00
3:53 pm 15:53 Sunny 97 36.1 69 20.6 40 40 Calm 29.88 1012 10 16 0.00 0.00
4:53 pm 16:53 Sunny 97 36.1 68 20 39 39 SE 3 6 29.88 1012 10 16 0.00 0.00
5:53 pm 17:53 Sunny 96 35.6 70 21.1 43 43 SE 5 7 29.88 1012 10 16 0.00 0.00
6:53 pm 18:53 Sunny 92 33.3 76 24.4 60 60 ESE 6 9 29.87 1012 10 16 0.00 0.00
7:53 pm 19:53 Sunny 89 31.7 78 25.6 70 70 ESE 5 7 29.89 1012 10 16 0.00 0.00
8:53 pm 20:53 Sunny 83 28.3 78 25.6 85 85 E 5 7 29.90 1013 10 16 0.00 0.00
9:53 pm 21:53 Clear 80 26.7 73 22.8 79 79 E 3 6 29.91 1013 10 16 0.00 0.00
10:53 pm 22:53 Clear 77 25 72 22 83 83 Calm 29.88 1012 10 16 0.00 0.00
11:53 pm 23:53 Clear 74 23.3 71 21.7 91 91 Calm 29.94 1014 10 16 0.00 0.00

Powered by AerisWeather